DW1296 Culebra PR US current weather conditions

sailwx.info

Wind from 224 at 1 knots gusting 5

Air temperature 26.7° C
Dewpoint 24.7° C

Last reported at 2019-Dec-03 21:38 UTC.
Time now 2019-Dec-05 15:23 UTC

Location: N 18°18' W 065°16'.
View on Google Maps.

See reports from other nearby stations

  
Tides and Currents Weather Stations Pressure Air Temp Water Temp Dewpoint Dewpoint Depression Visibility Wind Speed Wind Dir Waves Ship Positions
date/time (UTC)wind fromknots sea level pressurealtimeterstation pressurevisibilityair tempwater tempwave heightnotes
2019-Dec-03 21:38 224 1 gusting 5 26.7
2019-Dec-03 21:23 215 2 gusting 7 26.7
2019-Dec-03 21:08 163 4 gusting 6 26.7
2019-Dec-03 20:53 200 3 gusting 8 27.2
2019-Dec-03 20:38 191 5 gusting 11 28.3
2019-Dec-03 20:23 225 6 gusting 9 27.8
2019-Dec-03 20:08 203 6 gusting 11 27.2
2019-Dec-03 19:53 170 6 gusting 9 28.3
2019-Dec-03 19:38 146 3 gusting 8 28.3
2019-Dec-03 19:23 218 4 gusting 11 28.3
2019-Dec-03 19:08 121 5 gusting 10 27.8
2019-Dec-03 18:53 196 7 gusting 12 28.9
2019-Dec-03 18:38 066 5 gusting 10 28.9
2019-Dec-03 18:23 199 5 gusting 7 28.9
2019-Dec-03 18:08 199 2 gusting 7 28.3
2019-Dec-03 17:53 248 3 gusting 6 26.7
2019-Dec-03 17:38 246 5 gusting 7 25.6
2019-Dec-03 17:23 239 6 gusting 8 25.0
2019-Dec-03 17:08 243 5 gusting 13 25.6
2019-Dec-03 16:53 258 6 gusting 11 26.7
2019-Dec-03 16:38 244 6 gusting 9 27.2
2019-Dec-03 16:23 151 3 gusting 9 29.4
2019-Dec-03 16:08 216 3 gusting 6 29.4
2019-Dec-03 15:53 106 4 gusting 6 29.4
2019-Dec-03 15:38 204 6 gusting 10 28.9
2019-Dec-03 15:23 210 5 gusting 8 28.9
2019-Dec-03 15:08 208 4 gusting 8 28.9